Location: Powder Track
(41.8531°N, 72.3584°W)
Time: 09:08:33
(UTC+00:00)

Transit 4A - Pass Details

Date: 12 August 2021
Orbit: 871 x 974 km, 66.8° (Epoch: 20 September)

Event Time Altitude Azimuth Distance (km) Brightness Sun altitude
Rises 03:35:34 0° 249° (WSW) 3,476 10.9 -30.4°
Reaches altitude 10° 03:38:34 10° 263° (W) 2,530 10.3 -30.6°
Maximum altitude 03:43:12 24° 316° (NW) 1,740 9.9 -30.9°
Drops below altitude 10° 03:47:50 10° 9° (N) 2,525 10.9 -31.2°
Sets 03:50:50 0° 23° (NNE) 3,469 11.5 -31.4°
